Orbital Elements at Epoch 2459200.5 (2020-Dec-17.0) TDB
Reference: JPL 11 (heliocentric ecliptic J2000)
Element | Value | Uncertainty (1-sigma) | Units |
e | .1483628580990719 | 4.3233e-08 | |
a | 2.933302392555079 | 1.8659e-08 | au |
q | 2.498109265926761 | 1.3318e-07 | au |
i | 1.243422784361208 | 4.7838e-06 | deg |
node | 103.6662739771716 | 0.00029219 | deg |
peri | 342.4466416099087 | 0.0002931 | deg |
M | 325.4748581333901 | 2.3181e-05 | deg |
tp | 2459376.481353099542 (2021-Jun-10.98135310) | 0.00011845 | TDB |
period | 1834.989914324019 5.02 | 1.7509e-05 4.794e-08 | d yr |
n | .1961863643989663 | 1.8719e-09 | deg/d |
Q | 3.368495519183396 | 2.1427e-08 | au |
|
| | Orbit Determination Parameters
Additional Information
|